Simultaneous Nadir Overpasses (SNOs) Predictions

Prediction of SNOs between GOES-15 and NPP Satellite Orbit:

Table of predicted SNOs for the next 14.0 days since TLE Epoch: 8/22/2020
Index Date Time (GOES-15) GOES-15 Lat,Lon NPP Lat,Lon Distance(km) Time Diff (sec)
1 08/23/2020 21:56:03 0.05,-127.73 -0.02,-128.06 37.28 80
2 08/24/2020 21:39:59 0.04,-127.69 0.98,-123.52 474.83 80
3 08/26/2020 09:59:07 -0.05,-127.67 0.19,-128.79 128.31 80
4 08/27/2020 09:43:03 -0.05,-127.62 -0.81,-124.26 383.29 80
5 08/28/2020 22:02:19 0.06,-127.51 -0.42,-129.56 233.46 80
6 08/29/2020 21:46:15 0.06,-127.47 0.58,-125.02 278.07 80
7 08/31/2020 10:05:23 -0.07,-127.44 0.59,-130.29 325.57 80
8 09/01/2020 09:49:18 -0.07,-127.40 -0.41,-125.76 185.91 80
9 09/02/2020 22:08:36 0.07,-127.28 -0.76,-131.07 431.02 80
10 09/03/2020 21:52:31 0.07,-127.24 0.25,-126.54 80.46 80
